Location: Port-Aux-Quilles Astronomical Observatory
(47.9769°N, 69.9642°W)
Time: 03:52:10
(UTC-04:00)

Envisat - Visible Passes

Search period start: 21 March 2019 00:00
Search period end: 31 March 2019 00:00
Orbit: 764 x 766 km, 98.2° (Epoch: 21 March)

Date Brightness Start Highest point End Pass type
(mag) Time Alt. Az. Time Alt. Az. Time Alt. Az.
21 Mar 5.5 20:18:49 10° SW 20:22:50 23° W 20:26:52 10° NW visible
22 Mar 4.2 19:40:56 10° S 19:45:49 47° W 19:50:44 10° NNW visible
23 Mar 6.0 20:46:04 10° WSW 20:48:41 14° W 20:51:19 10° NW visible
24 Mar 5.1 20:07:09 10° SSW 20:11:30 29° W 20:15:54 10° NW visible
25 Mar 3.8 19:29:33 10° S 19:34:33 59° W 19:39:36 10° NNW visible
26 Mar 5.8 20:33:59 10° SW 20:37:19 17° W 20:40:40 10° NW visible
27 Mar 4.8 19:55:35 10° SSW 20:00:13 35° W 20:04:53 10° NNW visible
29 Mar 5.6 20:22:08 10° SW 20:25:58 21° W 20:29:51 10° NW visible
30 Mar 4.4 19:44:06 10° S 19:48:55 43° W 19:53:47 10° NNW visible
